Weather History for KMGC - July, 2013

Change the Weather History Date:

Tuesday, July 30, 2013

  Actual Average (KVPZ) Record (KVPZ)
Temperature  
Mean Temperature 62 °F 72 °F  
Max Temperature 75 °F 82 °F 97 °F (1999)
Min Temperature 50 °F 62 °F 52 °F (2013)
Degree Days  
Heating Degree Days 2 0  
Month to date heating degree days 0  
Since 1 June heating degree days 41  
Since 1 July heating degree days 0  
Cooling Degree Days 0 7  
Month to date cooling degree days 233  
Year to date cooling degree days 444  
Since 1 June cooling degree days 397  
Growing Degree Days 12 (Base 50)    
Moisture  
Dew Point 56 °F    
Average Humidity 77    
Maximum Humidity 100    
Minimum Humidity 50    
Precipitation  
Precipitation 0.00 in 0.14 in 0.30 in (2004)
Month to date precipitation 4.20  
Year to date precipitation 21.09  
Sea Level Pressure  
Sea Level Pressure 30.17 in    
Wind  
Wind Speed 1 mph (South)    
Max Wind Speed 7 mph    
Max Gust Speed -    
Visibility 8 miles    
Events Fog , Rain    
T = Trace of Precipitation, MM = Missing Value Source: NWS Daily Summary

Daily Weather History Graph

Daily Weather History Graph

Search for Another Location

Airport or City:

Trip Planner

Search our weather history database for the weather conditions in past years. The results will help you decide how hot, cold, wet, or windy it might be!

Date:

Astronomy

Jul. 30, 2013 Rise Set
Actual Time 5:39 AM CDT 8:07 PM CDT
Civil Twilight 5:08 AM CDT 8:38 PM CDT
Nautical Twilight 4:29 AM CDT 9:17 PM CDT
Astronomical Twilight 3:45 AM CDT 10:01 PM CDT
Moon No Moon Rise 2:26 PM CDT (7/30)
Length of Visible Light 15h 30m
Length of Day
14h 27m
Last Quarter, 41% of the Moon is Illuminated
Jul 30
Last Quarter
Aug 6
New
Aug 14
First Quarter
Aug 20
Full
Aug 28
Last Quarter

Hourly Weather History & Observations

Time (CDT) Temp. Dew Point Humidity Pressure Visibility Wind Dir Wind Speed Gust Speed Precip Events Conditions
12:15 AM 53.6 °F 51.8 °F 94% 30.20 in 0.5 mi Calm Calm - N/A Fog Fog
12:35 AM 51.8 °F 51.8 °F 100% 30.20 in 1.8 mi Calm Calm - N/A   Scattered Clouds
12:55 AM 51.8 °F 51.8 °F 100% 30.20 in 4.0 mi Calm Calm - N/A   Clear
1:15 AM 51.8 °F 50.0 °F 94% 30.20 in 5.0 mi Calm Calm - N/A   Clear
1:35 AM 51.8 °F 51.8 °F 100% 30.20 in 5.0 mi Calm Calm - N/A   Clear
1:55 AM 51.8 °F 50.0 °F 94% 30.19 in 7.0 mi Calm Calm - N/A   Clear
2:15 AM 51.8 °F 50.0 °F 94% 30.20 in 4.0 mi Calm Calm - N/A   Clear
2:35 AM 51.8 °F 50.0 °F 94% 30.20 in 2.5 mi Calm Calm - N/A   Clear
2:55 AM 51.8 °F 50.0 °F 94% 30.20 in 7.0 mi Calm Calm - N/A   Clear
3:15 AM 51.8 °F 50.0 °F 94% 30.19 in 5.0 mi Calm Calm - N/A   Clear
3:35 AM 50.0 °F 50.0 °F 100% 30.19 in 2.5 mi Calm Calm - N/A   Clear
3:55 AM 50.0 °F 50.0 °F 100% 30.19 in 1.2 mi Calm Calm - N/A   Mist
4:15 AM 50.0 °F 50.0 °F 100% 30.20 in 2.0 mi Calm Calm - N/A   Clear
4:35 AM 50.0 °F 50.0 °F 100% 30.19 in 5.0 mi Calm Calm - N/A   Clear
4:55 AM 50.0 °F 50.0 °F 100% 30.19 in 5.0 mi Calm Calm - N/A   Clear
5:15 AM 50.0 °F 50.0 °F 100% 30.19 in 2.5 mi Calm Calm - N/A   Clear
5:35 AM 50.0 °F 50.0 °F 100% 30.20 in 1.8 mi Calm Calm - N/A   Mist
5:55 AM 50.0 °F 50.0 °F 100% 30.20 in 0.5 mi Calm Calm - N/A Fog Fog
6:15 AM 50.0 °F 50.0 °F 100% 30.20 in 0.8 mi Calm Calm - N/A   Mist
6:35 AM 51.8 °F 50.0 °F 94% 30.21 in 7.0 mi Calm Calm - N/A   Clear
6:55 AM 53.6 °F 53.6 °F 100% 30.21 in 7.0 mi Calm Calm - N/A   Clear
7:15 AM 57.2 °F 55.4 °F 94% 30.21 in 10.0 mi Calm Calm - N/A   Clear
7:35 AM 60.8 °F 59.0 °F 94% 30.21 in 10.0 mi Calm Calm - N/A   Clear
7:55 AM 64.4 °F 59.0 °F 83% 30.21 in 10.0 mi Calm Calm - N/A   Clear
8:15 AM 66.2 °F 59.0 °F 78% 30.21 in 10.0 mi Calm Calm - N/A   Clear
8:35 AM 68.0 °F 57.2 °F 68% 30.21 in 10.0 mi Calm Calm - N/A   Clear
8:55 AM 69.8 °F 57.2 °F 64% 30.21 in 10.0 mi SSE 3.5 mph - N/A   Clear
9:15 AM 71.6 °F 57.2 °F 60% 30.21 in 10.0 mi South 4.6 mph - N/A   Clear
9:35 AM 71.6 °F 55.4 °F 57% 30.20 in 10.0 mi South 4.6 mph - N/A   Clear
9:55 AM 73.4 °F 55.4 °F 53% 30.20 in 10.0 mi South 4.6 mph - N/A   Clear
10:15 AM 73.4 °F 53.6 °F 50% 30.20 in 10.0 mi SSW 4.6 mph - N/A   Clear
10:35 AM 75.2 °F 55.4 °F 50% 30.20 in 10.0 mi SSW 6.9 mph - N/A   Clear
10:55 AM 73.4 °F 53.6 °F 50% 30.20 in 10.0 mi Calm Calm - N/A   Clear
11:15 AM 73.4 °F 55.4 °F 53% 30.20 in 10.0 mi South 4.6 mph - N/A   Clear
11:55 AM 73.4 °F 53.6 °F 50% 30.19 in 10.0 mi South 4.6 mph - N/A   Clear
12:15 PM 73.4 °F 55.4 °F 53% 30.19 in 10.0 mi South 5.8 mph - N/A   Scattered Clouds
12:35 PM 73.4 °F 55.4 °F 53% 30.18 in 10.0 mi South 4.6 mph - N/A   Overcast
1:15 PM 73.4 °F 55.4 °F 53% 30.17 in 10.0 mi South 4.6 mph - N/A   Mostly Cloudy
1:35 PM 71.6 °F 55.4 °F 57% 30.17 in 10.0 mi South 3.5 mph - N/A   Overcast
1:55 PM 73.4 °F 57.2 °F 57% 30.17 in 10.0 mi South 3.5 mph - N/A   Light Drizzle
2:15 PM 73.4 °F 55.4 °F 53% 30.16 in 5.0 mi South 3.5 mph - N/A   Haze
2:35 PM 71.6 °F 55.4 °F 57% 30.15 in 10.0 mi South 5.8 mph - N/A   Overcast
2:55 PM 73.4 °F 57.2 °F 57% 30.15 in 10.0 mi South 4.6 mph - N/A   Overcast
3:15 PM 71.6 °F 57.2 °F 60% 30.14 in 10.0 mi South 3.5 mph - N/A   Overcast
3:35 PM 71.6 °F 55.4 °F 57% 30.14 in 10.0 mi South 4.6 mph - N/A   Overcast
3:55 PM 71.6 °F 57.2 °F 60% 30.13 in 10.0 mi South 3.5 mph - N/A   Overcast
4:15 PM 71.6 °F 57.2 °F 60% 30.13 in 10.0 mi South 3.5 mph - N/A   Overcast
4:35 PM 71.6 °F 59.0 °F 64% 30.13 in 10.0 mi SSW 4.6 mph - N/A   Overcast
4:55 PM 69.8 °F 60.8 °F 73% 30.13 in 10.0 mi Calm Calm - N/A Rain Light Rain
5:15 PM 69.8 °F 62.6 °F 78% 30.14 in 10.0 mi Calm Calm - N/A   Drizzle
5:35 PM 69.8 °F 62.6 °F 78% 30.13 in 10.0 mi Calm Calm - N/A   Overcast
5:55 PM 69.8 °F 60.8 °F 73% 30.13 in 7.0 mi South 3.5 mph - N/A   Overcast
6:15 PM 69.8 °F 59.0 °F 68% 30.13 in 10.0 mi South 3.5 mph - N/A   Overcast
6:35 PM 69.8 °F 59.0 °F 68% 30.12 in 10.0 mi Calm Calm - N/A   Overcast
6:55 PM 69.8 °F 59.0 °F 68% 30.12 in 10.0 mi SSE 3.5 mph - N/A   Overcast
7:15 PM 69.8 °F 59.0 °F 68% 30.12 in 10.0 mi Calm Calm - N/A   Overcast
7:35 PM 69.8 °F 59.0 °F 68% 30.12 in 10.0 mi Calm Calm - N/A   Overcast
7:55 PM 68.0 °F 59.0 °F 73% 30.12 in 10.0 mi Calm Calm - N/A   Overcast
8:15 PM 68.0 °F 59.0 °F 73% 30.11 in 10.0 mi Calm Calm - N/A   Overcast
8:35 PM 66.2 °F 59.0 °F 78% 30.11 in 10.0 mi Calm Calm - N/A   Overcast
8:55 PM 66.2 °F 59.0 °F 78% 30.11 in 10.0 mi Calm Calm - N/A   Overcast
9:15 PM 66.2 °F 59.0 °F 78% 30.12 in 10.0 mi Calm Calm - N/A   Overcast
9:35 PM 68.0 °F 59.0 °F 73% 30.12 in 10.0 mi Calm Calm - N/A   Overcast
9:55 PM 64.4 °F 60.8 °F 88% 30.12 in 10.0 mi Calm Calm - N/A   Overcast
10:15 PM 64.4 °F 59.0 °F 83% 30.12 in 10.0 mi Calm Calm - N/A   Overcast
10:35 PM 64.4 °F 60.8 °F 88% 30.11 in 10.0 mi Calm Calm - N/A   Overcast
10:55 PM 64.4 °F 60.8 °F 88% 30.11 in 10.0 mi Calm Calm - N/A   Overcast
11:15 PM 62.6 °F 59.0 °F 88% 30.11 in 10.0 mi Calm Calm - N/A   Overcast
11:35 PM 62.6 °F 60.8 °F 94% 30.10 in 10.0 mi Calm Calm - N/A   Overcast
11:55 PM 62.6 °F 59.0 °F 88% 30.10 in 10.0 mi Calm Calm - N/A   Overcast